[Iaude] MPEC U283: 2023 TJ84 [a=2.10,e=0.39,i=9.2,H=19.3]

mpec at marsden.cfa.harvard.edu mpec at marsden.cfa.harvard.edu
Mon Oct 30 15:25:11 EDT 2023


M.P.E.C. 2023-U283                             Issued 2023 October 30, 19:23 UT

     The Minor Planet Electronic Circulars contain information on unusual
         minor planets, routine data on comets and natural satellites,
         and occasional editorial announcements.  They are published
    on behalf of Division F of the International Astronomical Union by the
          Minor Planet Center, Smithsonian Astrophysical Observatory,
                          Cambridge, MA 02138, U.S.A.
			  
             Prepared using the Tamkin Foundation Computer Network

                              MPC at CFA.HARVARD.EDU
            URL https://www.minorplanetcenter.net/    ISSN 1523-6714

                                   2023 TJ84                                    


Observations:
     K23T84J* C2023 10 15.46862503 40 01.534+05 59 44.40         22.53wXEU283F51
     K23T84J  C2023 10 15.48136003 40 00.746+05 59 41.29         22.16wXEU283F51
     K23T84J  C2023 10 15.49411003 39 59.964+05 59 38.23         22.32wXEU283F51
     K23T84J  C2023 10 15.50692703 39 59.170+05 59 35.33         22.20wXEU283F51
     K23T84J 3C2023 10 18.45406803 36 57.885+05 48 12.96         22.13GVEU283T14
     K23T84J 3C2023 10 18.45527903 36 57.804+05 48 12.72         21.98GVEU283T14
     K23T84J 3C2023 10 18.45648803 36 57.722+05 48 12.41         22.14GVEU283T14
     K23T84J KC2023 10 22.28381603 32 41.240+05 33 59.65         22.21GVEU283V06
     K23T84J KC2023 10 22.28877203 32 40.924+05 33 58.75         21.68GVEU283V06
     K23T84J KC2023 10 22.29373103 32 40.535+05 33 57.42         22.18GVEU283V06
     K23T84J KC2023 10 22.29869003 32 40.189+05 33 56.70         22.10GVEU283V06

Observer details:
F51 Pan-STARRS 1, Haleakala.  Observers J. Bulger, T. Lowe, P. Minguez, A.
    Schultz, I. Smith.  Measurers K. Chambers, T. de Boer, J. Fairlamb, H.
    Gao, M. Huber, C.-C. Lin, E. Magnier, Y. Ramanjooloo, R. Wainscoat, R.
    Weryk.  1.8-m Ritchey-Chretien + CCD.
T14 Canada-France-Hawaii Telescope, Maunakea.  Observers R. Wainscoat, H.
    Januszewski, T. Burdullis.  Measurers R. Weryk, R. Wainscoat.  3.6-m f/4.1
    reflector + CCD.
V06 Catalina Sky Survey-Kuiper.  Observer J. B. Fazekas.  Measurers E. C.
    Beshore, D. Fay, J. B. Fazekas, D. C. Fuls, A. R. Gibbs, A. D. Grauer, H.
    Groeller, J. K. Hogan, R. A. Kowalski, S. M. Larson, G. J. Leonard, D.
    Rankin, R. L. Seaman, F. C. Shelly, K. W. Wierzchos.  1.55-m reflector +
    1K CCD.

Orbital elements:
2023 TJ84                                                Earth MOID = 0.2653 AU
Epoch 2023 Sept. 13.0 TT = JDT 2460200.5                Bell                    
M  62.21338              (2000.0)            P               Q                  
n   0.32420241     Peri.  185.90328     +0.20526628     +0.96560410             
a   2.0985785      Node    96.01944     -0.89125171     +0.25180559             
e   0.3891509      Incl.    9.23546     -0.40439602     -0.06482804             
P   3.04           H   19.33          G   0.15           U   9                  
Residuals in seconds of arc
231015 F51  0.1+  0.1+    231018 T14  0.0   0.0     231022 V06  0.3+  0.1+
231015 F51  0.0   0.0     231018 T14  0.0   0.0     231022 V06  0.1-  0.2-
231015 F51  0.0   0.1-    231018 T14  0.0   0.0     231022 V06  0.0   0.2+
231015 F51  0.0   0.0     231022 V06  0.2-  0.1-

Ephemeris:
2023 TJ84                a,e,i = 2.10, 0.39, 9                   q = 1.2819
Date    TT    R. A. (2000) Decl.     Delta      r    Elong.  Phase     V
2023 09 30    03 51 03.5 +06 59 51   1.3282  2.0989   128.0    22.1    22.6
...
2023 10 15    03 40 28.8 +06 01 36   1.2758  2.1670   144.5    15.5    22.4
...
2023 10 23    03 31 50.8 +05 31 30   1.2657  2.2023   153.7    11.6    22.3
...
2023 10 29    03 24 26.5 +05 11 40   1.2681  2.2283   160.2     8.7    22.2
2023 10 30    03 23 09.3 +05 08 42   1.2694  2.2326   161.2     8.3    22.2
2023 10 31    03 21 51.4 +05 05 49   1.2710  2.2369   162.1     7.8    22.2
...
2023 11 06    03 13 55.6 +04 51 05   1.2861  2.2623   166.6     5.8    22.1
...
2023 11 14    03 03 25.5 +04 39 22   1.3219  2.2955   166.4     5.8    22.2
...
2023 11 29    02 46 27.8 +04 46 16   1.4362  2.3556   152.5    11.2    22.7

M. P. C. Staff               (C) Copyright 2023 MPC           M.P.E.C. 2023-U283





More information about the Iaude mailing list